| time (UTC) | temp C | wind direction | speed KPH | gust KPH | rain 1hr cm | rain 24hr cm | rain mn cm | humidity % | barometer mb |
| 20260508014529 | 8 | 55 | 0.0 | 3.2 | 0.00 | 0.00 | 0.00 | 1 | 1016.6 |
| 20260508013021 | 8 | 55 | 0.0 | 4.8 | 0.00 | 0.00 | 0.00 | 1 | 1016.5 |
| 20260508011517 | 8 | 135 | 0.0 | 1.6 | 0.00 | 0.00 | 0.00 | 1 | 1016.6 |
| 20260508010015 | 8 | 135 | 0.0 | 0.0 | 0.00 | 0.00 | 0.00 | 1 | 1016.7 |
| 20260508004509 | 8 | 135 | 0.0 | 0.0 | 0.00 | 0.00 | 0.00 | 1 | 1016.7 |
| 20260508003005 | 8 | 135 | 0.0 | 0.0 | 0.00 | 0.00 | 0.00 | 1 | 1016.7 |
| 20260508001600 | 8 | 135 | 0.0 | 0.0 | 0.00 | 0.00 | 0.00 | 1 | 1016.8 |
| 20260508000058 | 8 | 135 | 0.0 | 0.0 | 0.00 | 0.00 | 0.00 | 8 | 1016.8 |
| 20260507234552 | 9 | 135 | 0.0 | 0.0 | 0.00 | 0.00 | 0.00 | 14 | 1016.9 |
| 20260507233049 | 9 | 135 | 0.0 | 0.0 | 0.00 | 0.00 | 0.00 | 15 | 1017.0 |
| 20260507231551 | 10 | 135 | 0.0 | 0.0 | 0.00 | 0.00 | 0.00 | 19 | 1017.0 |
| 20260507230050 | 10 | 135 | 0.0 | 4.8 | 0.00 | 0.00 | 0.00 | 23 | 1017.1 |
| 20260507224543 | 10 | 162 | 1.6 | 3.2 | 0.00 | 0.00 | 0.00 | 30 | 1017.2 |
| 20260507223036 | 10 | 106 | 0.0 | 4.8 | 0.00 | 0.00 | 0.00 | 34 | 1017.0 |
| 20260507221537 | 10 | 87 | 0.0 | 3.2 | 0.00 | 0.00 | 0.00 | 39 | 1016.9 |
| 20260507220027 | 10 | 145 | 0.0 | 0.0 | 0.00 | 0.00 | 0.00 | 42 | 1017.1 |
| 20260507214522 | 11 | 145 | 0.0 | 3.2 | 0.00 | 0.00 | 0.00 | 46 | 1017.2 |
| 20260507213018 | 11 | 145 | 0.0 | 1.6 | 0.00 | 0.00 | 0.00 | 49 | 1017.2 |
| 20260507211520 | 11 | 145 | 0.0 | 3.2 | 0.00 | 0.00 | 0.00 | 51 | 1017.2 |
| 20260507210009 | 11 | 129 | 0.0 | 4.8 | 0.00 | 0.00 | 0.00 | 53 | 1017.0 |
| 20260507204507 | 11 | 120 | 1.6 | 6.4 | 0.00 | 0.00 | 0.00 | 55 | 1016.8 |
| 20260507203111 | 11 | 148 | 1.6 | 8.0 | 0.00 | 0.00 | 0.00 | 57 | 1016.7 |
| 20260507201600 | 12 | 122 | 1.6 | 6.4 | 0.00 | 0.00 | 0.00 | 58 | 1016.6 |
| 20260507200106 | 12 | 115 | 1.6 | 6.4 | 0.00 | 0.00 | 0.00 | 60 | 1016.4 |
| 20260507194547 | 12 | 129 | 1.6 | 8.0 | 0.00 | 0.00 | 0.00 | 60 | 1016.2 |
| 20260507193047 | 12 | 133 | 1.6 | 11.3 | 0.00 | 0.00 | 0.00 | 60 | 1016.0 |
| 20260507191538 | 13 | 105 | 6.4 | 14.5 | 0.00 | 0.00 | 0.00 | 60 | 1015.9 |
| 20260507190034 | 13 | 142 | 4.8 | 14.5 | 0.00 | 0.00 | 0.00 | 60 | 1015.8 |
| 20260507184529 | 13 | 117 | 3.2 | 11.3 | 0.00 | 0.00 | 0.00 | 60 | 1015.8 |
| 20260507183025 | 14 | 115 | 6.4 | 17.7 | 0.00 | 0.00 | 0.00 | 60 | 1015.8 |
| 20260507181525 | 15 | 116 | 4.8 | 14.5 | 0.00 | 0.00 | 0.00 | 59 | 1015.7 |
| 20260507180022 | 15 | 136 | 3.2 | 14.5 | 0.00 | 0.00 | 0.00 | 57 | 1015.5 |
| 20260507174514 | 15 | 119 | 4.8 | 16.1 | 0.00 | 0.00 | 0.00 | 56 | 1015.4 |
| 20260507173019 | 15 | 173 | 6.4 | 14.5 | 0.00 | 0.00 | 0.00 | 55 | 1015.4 |
| 20260507171507 | 15 | 133 | 6.4 | 14.5 | 0.00 | 0.00 | 0.00 | 55 | 1015.4 |
| 20260507170103 | 15 | 131 | 4.8 | 12.9 | 0.00 | 0.00 | 0.00 | 56 | 1015.4 |
| 20260507164600 | 15 | 155 | 3.2 | 14.5 | 0.00 | 0.00 | 0.00 | 55 | 1015.5 |
| 20260507163048 | 16 | 124 | 8.0 | 14.5 | 0.00 | 0.00 | 0.00 | 55 | 1015.5 |
| 20260507161543 | 16 | 119 | 8.0 | 16.1 | 0.00 | 0.00 | 0.00 | 54 | 1015.6 |
| 20260507160040 | 17 | 135 | 8.0 | 16.1 | 0.00 | 0.00 | 0.00 | 52 | 1015.5 |
| 20260507154539 | 17 | 152 | 4.8 | 14.5 | 0.00 | 0.00 | 0.00 | 47 | 1015.5 |
| 20260507153030 | 17 | 116 | 8.0 | 14.5 | 0.00 | 0.00 | 0.00 | 45 | 1015.5 |
| 20260507151525 | 17 | 110 | 1.6 | 6.4 | 0.00 | 0.00 | 0.00 | 44 | 1015.5 |
| 20260507150026 | 17 | 46 | 3.2 | 8.0 | 0.00 | 0.00 | 0.00 | 43 | 1015.5 |
| 20260507144524 | 17 | 153 | 3.2 | 9.7 | 0.00 | 0.00 | 0.00 | 45 | 1015.6 |
| 20260507143013 | 17 | 50 | 1.6 | 9.7 | 0.00 | 0.00 | 0.00 | 42 | 1015.7 |
| 20260507141508 | 17 | 75 | 3.2 | 16.1 | 0.00 | 0.00 | 0.00 | 44 | 1015.7 |
| 20260507140005 | 17 | 74 | 1.6 | 6.4 | 0.00 | 0.00 | 0.00 | 42 | 1015.9 |
| 20260507134609 | 17 | 14 | 1.6 | 6.4 | 0.00 | 0.00 | 0.00 | 40 | 1015.9 |
| 20260507133123 | 17 | 161 | 3.2 | 8.0 | 0.00 | 0.00 | 0.00 | 44 | 1016.0 |
| 20260507131554 | 17 | 229 | 4.8 | 11.3 | 0.00 | 0.00 | 0.00 | 43 | 1016.0 |
| 20260507130103 | 17 | 108 | 1.6 | 6.4 | 0.00 | 0.00 | 0.00 | 41 | 1016.0 |
| 20260507124541 | 17 | 206 | 1.6 | 4.8 | 0.00 | 0.00 | 0.00 | 39 | 1016.0 |
| 20260507123039 | 18 | 247 | 1.6 | 12.9 | 0.00 | 0.00 | 0.00 | 38 | 1016.1 |
| 20260507121533 | 18 | 337 | 3.2 | 8.0 | 0.00 | 0.00 | 0.00 | 37 | 1016.2 |
| 20260507120028 | 17 | 208 | 0.0 | 8.0 | 0.00 | 0.00 | 0.00 | 41 | 1016.2 |
| 20260507114525 | 17 | 320 | 3.2 | 9.7 | 0.00 | 0.00 | 0.00 | 42 | 1016.4 |
| 20260507113023 | 17 | 313 | 3.2 | 8.0 | 0.00 | 0.00 | 0.00 | 43 | 1016.3 |
| 20260507111516 | 18 | 316 | 4.8 | 14.5 | 0.00 | 0.00 | 0.00 | 41 | 1016.5 |
| 20260507110013 | 18 | 308 | 1.6 | 9.7 | 0.00 | 0.00 | 0.00 | 42 | 1016.4 |
| 20260507104508 | 17 | 128 | 3.2 | 8.0 | 0.00 | 0.00 | 0.00 | 45 | 1016.6 |
| 20260507103003 | 17 | 36 | 1.6 | 12.9 | 0.00 | 0.00 | 0.00 | 47 | 1016.6 |
| 20260507101612 | 15 | 144 | 3.2 | 11.3 | 0.00 | 0.00 | 0.00 | 54 | 1016.8 |
| 20260507094550 | 15 | 151 | 1.6 | 8.0 | 0.00 | 0.00 | 0.00 | 56 | 1016.8 |
| 20260507093048 | 15 | 268 | 0.0 | 9.7 | 0.00 | 0.00 | 0.00 | 56 | 1016.8 |
| 20260507091546 | 15 | 129 | 0.0 | 6.4 | 0.00 | 0.00 | 0.00 | 58 | 1016.9 |
| 20260507090039 | 14 | 177 | 1.6 | 9.7 | 0.00 | 0.00 | 0.00 | 59 | 1016.9 |
| 20260507084532 | 14 | 135 | 4.8 | 11.3 | 0.00 | 0.00 | 0.00 | 53 | 1016.9 |
| 20260507083032 | 13 | 91 | 3.2 | 8.0 | 0.00 | 0.00 | 0.00 | 4 | 1016.9 |
| 20260507081523 | 11 | 95 | 3.2 | 12.9 | 0.00 | 0.00 | 0.00 | 1 | 1016.9 |
| 20260507080022 | 9 | 94 | 1.6 | 6.4 | 0.00 | 0.00 | 0.00 | 1 | 1016.9 |
| 20260507074514 | 8 | 99 | 0.0 | 4.8 | 0.00 | 0.00 | 0.00 | 1 | 1016.8 |
| 20260507073011 | 7 | 37 | 3.2 | 8.0 | 0.00 | 0.00 | 0.00 | 1 | 1016.8 |
| 20260507071505 | 7 | 56 | 3.2 | 6.4 | 0.00 | 0.00 | 0.00 | 1 | 1016.8 |
| 20260507070002 | 6 | 49 | 1.6 | 4.8 | 0.00 | 0.00 | 0.00 | 1 | 1016.8 |
| 20260507064600 | 5 | 55 | 0.0 | 3.2 | 0.00 | 0.00 | 0.00 | 1 | 1016.8 |
| 20260507063057 | 5 | 317 | 0.0 | 0.0 | 0.00 | 0.00 | 0.00 | 1 | 1016.8 |
| 20260507061548 | 4 | 310 | 0.0 | 0.0 | 0.00 | 0.00 | 0.00 | 1 | 1016.8 |
| 20260507060043 | 4 | 295 | 0.0 | 3.2 | 0.00 | 0.00 | 0.00 | 1 | 1016.7 |
| 20260507054540 | 3 | 295 | 0.0 | 3.2 | 0.00 | 0.00 | 0.00 | 1 | 1016.6 |
| 20260507053034 | 3 | 302 | 0.0 | 1.6 | 0.00 | 0.00 | 0.00 | 1 | 1016.5 |
| 20260507051532 | 3 | 302 | 0.0 | 1.6 | 0.00 | 0.00 | 0.00 | 1 | 1016.4 |
| 20260507050028 | 3 | 337 | 0.0 | 0.0 | 0.00 | 0.00 | 0.00 | 1 | 1016.4 |
| 20260507044519 | 4 | 337 | 0.0 | 0.0 | 0.00 | 0.00 | 0.00 | 1 | 1016.2 |
| 20260507043022 | 4 | 337 | 0.0 | 0.0 | 0.00 | 0.00 | 0.00 | 1 | 1016.1 |
| 20260507041511 | 4 | 337 | 0.0 | 0.0 | 0.00 | 0.00 | 0.00 | 1 | 1016.1 |
| 20260507040010 | 5 | 337 | 0.0 | 0.0 | 0.00 | 0.00 | 0.00 | 1 | 1016.2 |
| 20260507034503 | 5 | 337 | 0.0 | 0.0 | 0.00 | 0.00 | 0.00 | 1 | 1016.2 |
| 20260507033105 | 5 | 337 | 0.0 | 0.0 | 0.00 | 0.00 | 0.00 | 1 | 1016.1 |
| 20260507031554 | 5 | 337 | 0.0 | 0.0 | 0.00 | 0.00 | 0.00 | 1 | 1016.2 |
| 20260507030049 | 5 | 337 | 0.0 | 0.0 | 0.00 | 0.00 | 0.00 | 1 | 1016.1 |
| 20260507024551 | 6 | 337 | 0.0 | 0.0 | 0.00 | 0.00 | 0.00 | 1 | 1016.1 |
| 20260507023047 | 6 | 337 | 0.0 | 0.0 | 0.00 | 0.00 | 0.00 | 1 | 1016.0 |
| 20260507021538 | 6 | 337 | 0.0 | 3.2 | 0.00 | 0.00 | 0.00 | 1 | 1016.1 |
| 20260507020045 | 6 | 343 | 0.0 | 3.2 | 0.00 | 0.00 | 0.00 | 1 | 1015.9 |